1535976000.49,55377,20.94,74336.5,12.85,7.41,7.51,0,*41
1535976001.74,55378,20.94,74336.0,12.83,7.47,7.65,0,*49
1535976002.95,55379,20.94,74338.0,12.81,7.51,7.73,0,*4A
1535976004.21,55380,20.94,74334.0,12.83,7.65,7.95,0,*41
1535976005.42,55381,20.94,74332.8,12.81,7.77,8.09,0,*4B
1535976006.62,55382,20.94,74338.0,12.81,7.83,8.19,0,*42
1535976007.83,55383,20.94,74336.8,12.81,7.87,8.19,0,*47
1535976009.08,55384,20.94,74338.3,12.79,7.65,7.83,0,*47
1535976010.28,55385,20.94,74338.8,12.79,6.93,7.09,0,*4C
1535976011.51,55386,20.94,74336.5,12.75,7.51,7.69,0,*4A
1535976012.75,55387,20.94,74336.5,12.75,7.61,8.05,0,*4D
1535976013.98,55388,20.94,74338.0,12.77,7.47,7.87,0,*41
1535976015.2,55389,20.94,74336.8,12.77,7.47,7.87,0,*40
1535976016.41,55390,20.94,74338.0,12.75,7.59,8.05,0,*40
1535976017.65,55391,20.94,74336.5,12.73,7.47,7.95,0,*4E
1535976018.88,55392,20.94,74338.3,12.75,7.87,8.27,0,*41
1535976020.12,55393,20.94,74336.3,12.75,7.59,7.95,0,*45
1535976021.37,55394,20.94,74336.5,12.75,7.47,7.83,0,*4A
1535976022.58,55395,20.94,74338.3,12.73,7.77,8.23,0,*4B
1535976023.79,55396,20.94,74334.8,12.73,7.15,7.55,0,*42
1535976024.97,55397,20.94,74336.5,12.73,7.01,7.45,0,*47
1535976026.15,55398,20.94,74338.8,12.69,7.05,7.51,0,*42
1535976027.42,55399,20.94,74336.8,12.67,7.19,7.77,0,*44
1535976028.66,55400,20.94,74338.0,12.67,7.09,7.65,0,*41
1535976029.89,55401,20.94,74336.5,12.67,7.29,7.91,0,*49
1535976031.14,55402,20.94,74336.3,12.67,6.65,7.55,0,*4B
1535976032.35,55403,20.94,74338.0,12.67,6.29,7.33,0,*42
1535976033.57,55404,20.94,74338.5,12.67,6.33,7.55,0,*4E
1535976034.8,55405,20.94,74336.3,12.63,6.11,7.47,0,*48
1535976036.03,55406,20.94,74336.0,12.63,5.51,6.97,0,*40
1535976037.21,55407,20.94,74336.0,12.65,5.59,7.09,0,*49
1535976038.41,55408,20.94,74336.3,12.65,5.51,6.93,0,*4C
1535976039.64,55409,20.94,74336.5,12.63,5.55,6.75,0,*47
1535976040.87,55410,20.94,74338.8,12.63,5.67,6.65,0,*4F
1535976042.1,55411,20.94,74338.8,12.65,5.81,6.69,0,*4C
1535976043.33,55412,20.94,74340.0,12.63,5.63,6.43,0,*4D
1535976044.53,55413,20.94,74338.3,12.63,5.37,6.25,0,*4D
1535976045.77,55414,20.94,74338.0,12.61,6.17,6.87,0,*41
1535976047.01,55415,20.94,74336.5,12.61,6.17,6.91,0,*47
1535976048.21,55416,20.94,74336.5,12.61,5.99,6.69,0,*46
1535976049.44,55417,20.94,74336.5,12.59,6.17,7.11,0,*47
1535976050.65,55418,20.94,74338.5,12.61,6.53,7.45,0,*42
1535976051.84,55419,20.94,74338.3,12.59,6.21,7.29,0,*47
1535976053.05,55420,20.94,74336.8,12.61,6.07,7.15,0,*4D
1535976054.25,55421,20.94,74338.8,12.59,6.13,7.09,0,*4F
1535976055.46,55422,20.94,74336.3,12.59,6.39,7.29,0,*46
1535976056.64,55423,20.94,74340.8,12.59,6.75,7.45,0,*45
1535976057.88,55424,20.94,74338.3,12.59,6.87,7.69,0,*41
1535976059.12,55425,20.94,74336.3,12.59,6.65,7.69,0,*4C
1535976060.32,55426,20.94,74340.8,12.59,5.73,7.09,0,*4D
1535976061.51,55427,20.94,74342.8,12.59,5.45,7.19,0,*48
1535976062.72,55428,20.94,74338.8,12.59,5.01,6.93,0,*44
1535976063.92,55429,20.94,74338.5,12.59,4.57,6.17,0,*4B
1535976065.1,55430,20.94,74338.8,12.59,4.23,5.71,0,*43
1535976066.29,55431,20.94,74338.5,12.55,4.53,5.67,0,*4E
1535976067.51,55432,20.94,74338.3,12.55,4.63,5.89,0,*4E
1535976068.72,55433,20.94,74342.0,12.55,4.59,6.11,0,*44
1535976069.93,55434,20.94,74338.3,12.55,4.75,6.03,0,*4E
1535976071.14,55435,20.94,74338.8,12.55,5.01,6.11,0,*4E
1535976072.39,55436,20.94,74336.5,12.53,4.75,5.85,0,*47
1535976073.59,55437,20.94,74340.5,12.53,4.81,5.99,0,*40
1535976074.8,55438,20.94,74340.3,12.53,4.23,5.37,0,*43
1535976075.98,55439,20.94,74338.8,12.51,4.33,5.29,0,*4E
1535976077.19,55440,20.94,74336.8,12.51,4.59,5.67,0,*46
1535976078.42,55441,20.94,74338.5,12.53,4.45,5.51,0,*4D
1535976079.65,55442,20.94,74342.5,12.53,4.23,5.27,0,*4F
1535976080.89,55443,20.94,74342.5,12.55,4.05,4.97,0,*46
1535976082.13,55444,20.94,74338.0,12.53,4.11,4.97,0,*42
1535976083.38,55445,20.94,74340.5,12.53,4.01,4.67,0,*4D
1535976084.62,55446,20.94,74336.3,12.53,3.79,4.37,0,*43
1535976085.82,55447,20.94,74340.5,12.53,3.93,4.45,0,*43
1535976087.05,55448,20.94,74338.0,12.53,3.79,4.11,0,*49
1535976088.28,55449,20.94,74338.5,12.51,3.79,4.01,0,*4B
1535976089.5,55450,20.94,74338.3,12.51,3.75,3.93,0,*43
1535976090.68,55451,20.94,74336.8,12.51,4.15,4.27,0,*4B
1535976091.87,55452,20.94,74338.3,12.51,4.27,4.23,0,*4D
1535976093.08,55453,20.94,74336.5,12.51,4.23,4.05,0,*4C
1535976094.28,55454,20.94,74340.3,12.53,4.15,3.85,0,*43
1535976095.49,55455,20.94,74342.3,12.51,4.37,4.05,0,*4F
1535976096.7,55456,20.94,74340.0,12.51,4.67,4.33,0,*4C
1535976097.93,55457,20.94,74340.3,12.53,4.97,4.45,0,*41
1535976099.17,55458,20.94,74336.8,12.53,4.93,4.33,0,*4B
1535976100.37,55459,20.94,74338.5,12.53,4.81,4.15,0,*4D
1535976101.55,55460,20.94,74338.3,12.51,4.37,3.55,0,*4B
1535976102.77,55461,20.94,74334.5,12.51,4.71,3.93,0,*42
1535976103.98,55462,20.94,74334.8,12.51,4.85,4.05,0,*42
1535976105.18,55463,20.94,74336.8,12.51,5.27,4.33,0,*4F
1535976106.41,55464,20.94,74336.3,12.51,5.51,4.59,0,*45
1535976107.58,55465,20.94,74334.5,12.51,5.37,4.49,0,*45
1535976108.78,55466,20.94,74338.0,12.53,5.41,4.49,0,*45
1535976109.99,55467,20.94,74336.5,12.51,5.27,4.37,0,*4F
1535976111.17,55468,20.94,74338.5,12.51,5.45,4.57,0,*42
1535976112.37,55469,20.94,74336.3,12.51,5.77,4.81,0,*49
1535976113.6,55470,20.94,74338.8,12.51,5.73,4.59,0,*40
1535976114.82,55471,20.94,74340.5,12.53,5.63,4.59,0,*42
1535976116.08,55472,20.94,74336.8,12.53,5.73,4.59,0,*40
1535976117.3,55473,20.94,74336.5,12.53,5.67,4.59,0,*44
1535976118.57,55474,20.94,74336.5,12.53,5.89,4.71,0,*49
1535976119.82,55475,20.94,74338.8,12.53,5.77,4.67,0,*4E
1535976121.07,55476,20.94,74336.3,12.53,5.73,4.59,0,*44
1535976122.3,55477,20.94,74336.5,12.51,5.73,4.67,0,*4A
1535976123.56,55478,20.94,74340.8,12.53,5.73,4.71,0,*40
1535976124.83,55479,20.94,74340.3,12.53,5.89,4.75,0,*40
1535976126.06,55480,20.94,74338.0,12.53,6.13,5.15,0,*41
1535976127.29,55481,20.94,74338.5,12.53,6.07,4.93,0,*4A
1535976128.52,55482,20.94,74338.3,12.53,5.89,4.81,0,*4F
1535976129.76,55483,20.94,74332.8,12.53,5.99,4.97,0,*48
1535976130.94,55484,20.94,74336.5,12.55,5.71,4.53,0,*47
1535976132.2,55485,20.94,74336.3,12.53,5.85,4.67,0,*4C
1535976133.4,55486,20.94,74336.3,12.53,6.07,4.85,0,*4A
1535976134.63,55487,20.94,74338.0,12.53,5.99,4.67,0,*43
1535976135.87,55488,20.94,74338.0,12.53,5.89,4.57,0,*4E
1535976137.09,55489,20.94,74332.8,12.53,5.37,4.05,0,*4D
1535976138.32,55490,20.94,74334.0,12.53,5.37,4.05,0,*45
1535976139.5,55491,20.94,74334.8,12.51,5.37,3.93,0,*4E
1535976140.72,55492,20.94,74332.3,12.51,5.89,4.57,0,*47
1535976141.92,55493,20.94,74334.8,12.51,5.55,4.15,0,*41
1535976143.13,55494,20.94,74332.3,12.51,5.89,4.37,0,*47
1535976144.35,55495,20.94,74336.8,12.51,6.13,4.85,0,*4F
1535976145.54,55496,20.94,74336.3,12.51,6.25,4.85,0,*49
1535976146.77,55497,20.94,74336.5,12.49,6.17,4.81,0,*44
1535976148.0,55498,20.94,74338.8,12.45,5.55,4.19,0,*43
1535976149.24,55499,20.94,74332.8,12.49,5.99,4.63,0,*43
1535976150.45,55500,20.94,74338.0,12.49,6.29,4.81,0,*46
1535976151.68,55501,20.94,74338.5,12.51,6.47,5.19,0,*46
1535976152.89,55502,20.94,74334.0,12.49,6.29,4.89,0,*4C
1535976154.14,55503,20.94,74334.5,12.49,6.29,5.01,0,*4C
1535976155.39,55504,20.94,74338.8,12.45,6.29,4.97,0,*49
1535976156.63,55505,20.94,74336.3,12.45,6.17,4.85,0,*46
1535976157.88,55506,20.94,74336.8,12.49,6.61,5.23,0,*45
1535976159.12,55507,20.94,74338.0,12.45,6.39,5.11,0,*44
1535976160.36,55508,20.94,74338.0,12.49,6.11,4.79,0,*42
1535976161.57,55509,20.94,74336.3,12.45,6.79,5.59,0,*42
1535976162.8,55510,20.94,74338.0,12.45,6.25,5.07,0,*48
1535976164.01,55511,20.94,74338.3,12.45,6.07,4.85,0,*42
1535976165.28,55512,20.94,74334.5,12.45,5.93,4.75,0,*40
1535976166.51,55513,20.94,74338.5,12.43,6.13,4.97,0,*40
1535976167.72,55514,20.94,74336.5,12.43,6.57,5.45,0,*49
1535976168.96,55515,20.94,74336.5,12.41,6.65,5.63,0,*4F
1535976170.19,55516,20.94,74332.8,12.41,6.83,5.73,0,*45
1535976171.41,55517,20.94,74334.0,12.41,6.21,5.15,0,*4C
1535976172.64,55518,20.94,74338.5,12.41,6.21,5.15,0,*43
1535976173.87,55519,20.94,74336.3,12.43,6.61,5.55,0,*40
1535976175.1,55520,20.94,74336.8,12.41,6.75,5.85,0,*40
1535976176.31,55521,20.94,74334.5,12.41,7.05,6.25,0,*4E
1535976177.55,55522,20.94,74336.5,12.41,6.93,6.13,0,*46
1535976178.81,55523,20.94,74336.3,12.41,6.47,5.55,0,*4F
1535976180.07,55524,20.94,74332.0,12.41,6.57,5.73,0,*4D
1535976181.28,55525,20.94,74332.3,12.39,6.75,5.93,0,*4D
1535976182.49,55526,20.94,74334.8,12.39,6.51,5.63,0,*47
1535976183.71,55527,20.94,74336.3,12.39,6.51,5.71,0,*45
1535976184.92,55528,20.94,74334.3,12.39,6.75,5.93,0,*40
1535976186.16,55529,20.94,74332.3,12.39,6.65,5.81,0,*43
1535976187.37,55530,20.94,74334.8,12.37,6.75,5.99,0,*4D
1535976188.55,55531,20.94,74334.5,12.39,6.75,5.99,0,*42
1535976189.81,55532,20.94,74334.3,12.37,7.11,6.43,0,*48
1535976191.02,55533,20.94,74338.0,12.37,7.01,6.33,0,*4F
1535976192.23,55534,20.94,74332.8,12.37,6.75,5.99,0,*49
1535976193.43,55535,20.94,74336.3,12.37,6.79,6.29,0,*4C
1535976194.66,55536,20.94,74336.0,12.37,7.09,6.51,0,*46
1535976195.92,55537,20.94,74336.0,12.37,6.91,6.43,0,*44
1535976197.18,55538,20.94,74334.8,12.41,7.15,6.65,0,*43
1535976198.44,55539,20.94,74334.8,12.37,6.91,6.43,0,*4A
1535976199.64,55540,20.94,74332.3,12.39,6.97,6.53,0,*4D
1535976200.85,55541,20.94,74338.5,12.39,6.97,6.53,0,*4C
1535976202.11,55542,20.94,74334.3,12.37,6.91,6.51,0,*45
1535976203.36,55543,20.94,74334.3,12.37,6.87,6.53,0,*41
1535976204.57,55544,20.94,74334.0,12.35,6.75,6.47,0,*4C
1535976205.78,55545,20.94,74334.5,12.35,6.97,6.61,0,*45
1535976206.96,55546,20.94,74332.8,12.35,6.93,6.75,0,*47
1535976208.19,55547,20.94,74336.3,12.37,7.19,7.01,0,*45
1535976209.42,55548,20.94,74334.3,12.37,7.19,7.09,0,*42
1535976210.68,55549,20.94,74338.3,12.37,7.23,7.11,0,*43
1535976211.93,55550,20.94,74338.3,12.37,7.23,7.23,0,*4A
1535976213.19,55551,20.94,74334.8,12.37,7.19,7.19,0,*4B
1535976214.38,55552,20.94,74332.8,12.37,7.01,7.01,0,*48
1535976215.61,55553,20.94,74336.0,12.37,7.09,7.11,0,*40
1535976216.87,55554,20.94,74334.8,12.37,7.11,7.23,0,*4F
1535976218.07,55555,20.94,74332.3,12.37,6.79,6.97,0,*4F
1535976219.28,55556,20.94,74334.5,12.37,6.79,6.97,0,*4C
1535976220.52,55557,20.94,74336.3,12.37,6.97,7.19,0,*4A
1535976221.75,55558,20.94,74332.8,12.37,6.07,6.17,0,*43
1535976222.96,55559,20.94,74334.3,12.35,6.25,6.35,0,*40
1535976224.23,55560,20.94,74334.8,12.33,6.47,6.65,0,*4D
1535976225.48,55561,20.94,74332.8,12.33,6.53,6.73,0,*4E
1535976226.69,55562,20.94,74334.5,12.33,6.11,6.33,0,*4F
1535976227.93,55563,20.94,74334.3,12.29,6.33,6.61,0,*42
1535976229.13,55564,20.94,74334.0,12.31,6.83,7.15,0,*45
1535976230.33,55565,20.94,74334.5,12.31,6.69,7.05,0,*41
1535976231.55,55566,20.94,74330.5,12.29,6.69,7.01,0,*4F
1535976232.78,55567,20.94,74332.5,12.29,6.69,7.09,0,*46
1535976233.98,55568,20.94,74334.0,12.31,6.83,7.15,0,*49
1535976235.21,55569,20.94,74334.0,12.31,6.69,7.11,0,*48
1535976236.42,55570,20.94,74334.0,12.31,6.93,7.27,0,*40
1535976237.65,55571,20.94,74332.3,12.31,6.91,7.27,0,*43
1535976238.9,55572,20.94,74332.3,12.29,6.87,7.23,0,*4A
1535976240.1,55573,20.94,74336.0,12.31,6.53,7.01,0,*4B
1535976241.33,55574,20.94,74334.5,12.29,6.21,6.53,0,*46
1535976242.55,55575,20.94,74338.0,12.29,6.79,7.29,0,*46
1535976243.78,55576,20.94,74332.0,12.29,6.91,7.37,0,*4C
1535976245.03,55577,20.94,74336.8,12.29,6.69,7.11,0,*4E
1535976246.27,55578,20.94,74336.0,12.29,6.11,6.43,0,*48
1535976247.47,55579,20.94,74334.0,12.29,5.95,6.29,0,*4A
1535976248.69,55580,20.94,74336.8,12.23,5.77,6.13,0,*43
1535976249.93,55581,20.94,74332.0,12.23,6.13,6.47,0,*42
1535976251.13,55582,20.94,74338.8,12.23,6.39,6.93,0,*40
1535976252.34,55583,20.94,74334.5,12.27,6.75,7.11,0,*46
1535976253.57,55584,20.94,74334.8,12.23,6.73,7.15,0,*47
1535976254.78,55585,20.94,74338.5,12.27,6.43,6.79,0,*4A
1535976256.01,55586,20.94,74336.0,12.23,6.39,6.65,0,*4D
1535976257.24,55587,20.94,74336.8,12.21,6.47,6.83,0,*4F
1535976258.51,55588,20.94,74328.8,12.21,6.47,6.91,0,*43
1535976259.74,55589,20.94,74336.8,12.21,6.21,6.43,0,*4D
1535976261.0,55590,20.94,74334.0,12.21,6.53,6.91,0,*4F
1535976262.22,55591,20.94,74332.5,12.21,6.53,6.83,0,*4D
1535976263.48,55592,20.94,74334.3,12.21,6.57,6.91,0,*49
1535976264.69,55593,20.94,74330.5,12.23,6.73,6.97,0,*4A
1535976265.95,55594,20.94,74332.0,12.21,6.57,6.91,0,*4F
1535976267.13,55595,20.94,74332.0,12.19,6.83,7.05,0,*40
1535976268.33,55596,20.94,74334.0,12.21,6.83,7.05,0,*48
1535976269.53,55597,20.94,74332.0,12.21,6.79,7.05,0,*4C
1535976270.75,55598,20.94,74334.3,12.21,6.91,7.05,0,*45
1535976271.95,55599,20.94,74332.8,12.21,6.79,7.05,0,*42
1535976273.15,55600,20.94,74332.8,12.21,6.83,7.05,0,*44
1535976274.35,55601,20.94,74334.5,12.21,6.79,7.05,0,*40
1535976275.58,55602,20.94,74334.3,12.21,6.61,6.93,0,*44
1535976276.81,55603,20.94,74332.8,12.21,6.57,6.83,0,*41
1535976277.98,55604,20.94,74332.0,12.19,6.79,7.01,0,*4A
1535976279.24,55605,20.94,74332.0,12.21,6.91,7.11,0,*47
1535976280.46,55606,20.94,74330.5,12.21,6.73,7.01,0,*49
1535976281.72,55607,20.94,74334.0,12.21,6.91,7.11,0,*45
1535976282.95,55608,20.94,74332.3,12.21,6.93,7.15,0,*4C
1535976284.17,55609,20.94,74334.0,12.21,7.01,7.27,0,*46
1535976285.41,55610,20.94,74332.3,12.21,6.83,7.15,0,*44
1535976286.58,55611,20.94,74334.8,12.23,6.93,7.09,0,*4B
1535976287.78,55612,20.94,74330.8,12.21,6.79,7.01,0,*46
1535976288.96,55613,20.94,74332.3,12.19,6.79,7.01,0,*4C
1535976290.19,55614,20.94,74332.8,12.21,6.73,7.01,0,*4A
1535976291.38,55615,20.94,74334.0,12.21,6.79,7.05,0,*45
1535976292.61,55616,20.94,74330.3,12.21,6.47,6.79,0,*41
1535976293.79,55617,20.94,74332.0,12.23,6.75,6.97,0,*43
1535976295.0,55618,20.94,74332.5,12.19,6.47,6.79,0,*44
1535976296.24,55619,20.94,74332.5,12.19,6.43,6.73,0,*4B
1535976297.45,55620,20.94,74334.3,12.19,6.25,6.47,0,*46
1535976298.7,55621,20.94,74334.0,12.21,6.25,6.47,0,*4C
1535976299.89,55622,20.94,74334.5,12.19,6.03,6.25,0,*44
1535976301.12,55623,20.94,74332.8,12.19,6.35,6.61,0,*40
1535976302.36,55624,20.94,74334.0,12.19,6.35,6.73,0,*44
1535976303.57,55625,20.94,74332.0,12.19,6.47,6.83,0,*4F
1535976304.78,55626,20.94,74334.5,12.19,6.43,6.79,0,*4D
1535976306.03,55627,20.94,74332.5,12.21,6.35,6.69,0,*47
1535976307.27,55628,20.94,74334.5,12.17,6.21,6.51,0,*43
1535976308.51,55629,20.94,74332.0,12.17,6.33,6.69,0,*4A
1535976309.72,55630,20.94,74330.5,12.19,6.11,6.35,0,*45
1535976310.96,55631,20.94,74332.0,12.17,6.21,6.43,0,*48
1535976312.15,55632,20.94,74334.8,12.15,6.29,6.75,0,*44
1535976313.36,55633,20.94,74332.8,12.15,6.51,6.97,0,*46
1535976314.59,55634,20.94,74332.3,12.17,6.69,6.97,0,*48
1535976315.8,55635,20.94,74332.8,12.15,6.73,7.09,0,*46
1535976317.03,55636,20.94,74334.0,12.17,6.69,7.09,0,*4C
1535976318.24,55637,20.94,74332.0,12.15,6.51,6.93,0,*46
1535976319.46,55638,20.94,74334.0,12.17,6.53,7.01,0,*43
1535976320.67,55639,20.94,74332.0,12.15,6.53,6.97,0,*4E
1535976321.9,55640,20.94,74334.3,12.17,6.65,7.09,0,*41
1535976323.13,55641,20.94,74330.0,12.17,6.53,6.97,0,*43
1535976324.38,55642,20.94,74330.0,12.17,6.51,6.97,0,*42
1535976325.58,55643,20.94,74330.5,12.17,6.33,6.79,0,*47
1535976326.82,55644,20.94,74330.3,12.17,5.95,6.39,0,*4B
1535976328.03,55645,20.94,74330.3,12.15,6.29,6.65,0,*45
1535976329.24,55646,20.94,74330.3,12.15,6.03,6.39,0,*47
1535976330.47,55647,20.94,74328.5,12.17,6.07,6.43,0,*4D
1535976331.66,55648,20.94,74332.0,12.15,6.29,6.75,0,*49
1535976332.88,55649,20.94,74328.8,12.15,6.35,6.75,0,*45
1535976334.11,55650,20.94,74328.0,12.15,6.13,6.47,0,*48
1535976335.3,55651,20.94,74330.0,12.15,6.29,6.75,0,*41
1535976336.52,55652,20.94,74330.8,12.15,6.35,6.75,0,*4F
1535976337.76,55653,20.94,74330.3,12.15,6.35,6.87,0,*43
1535976338.97,55654,20.94,74328.8,12.15,6.47,6.93,0,*44
1535976340.17,55655,20.94,74328.0,12.15,6.53,7.09,0,*42
1535976341.38,55656,20.94,74330.3,12.15,6.61,7.05,0,*4C
1535976342.61,55657,20.94,74328.3,12.17,6.51,6.93,0,*42
1535976343.84,55658,20.94,74328.5,12.17,6.39,6.79,0,*47
1535976345.07,55659,20.94,74328.5,12.17,6.21,6.69,0,*4E
1535976346.31,55660,20.94,74330.3,12.15,6.39,6.87,0,*4F
1535976347.57,55661,20.94,74328.8,12.17,6.39,6.87,0,*4C
1535976348.82,55662,20.94,74328.8,12.17,6.39,6.87,0,*4F
1535976350.08,55663,20.94,74330.8,12.17,6.43,6.91,0,*44
1535976351.3,55664,20.94,74330.8,12.15,6.47,6.93,0,*47
1535976352.51,55665,20.94,74330.0,12.15,6.35,6.75,0,*4B
1535976353.74,55666,20.94,74334.3,12.15,6.13,6.53,0,*48
1535976354.98,55667,20.94,74330.3,12.15,5.93,6.47,0,*47
1535976356.19,55668,20.94,74328.5,12.15,6.07,6.47,0,*46
1535976357.39,55669,20.94,74332.8,12.15,6.07,6.53,0,*42
1535976358.62,55670,20.94,74330.8,12.15,6.13,6.73,0,*4D
1535976359.85,55671,20.94,74330.8,12.15,6.17,6.65,0,*4F
1535976361.08,55672,20.94,74332.5,12.15,6.17,6.65,0,*4C
1535976362.26,55673,20.94,74330.8,12.15,6.29,6.79,0,*4D
1535976363.48,55674,20.94,74330.0,12.15,6.03,6.47,0,*4F
1535976364.7,55675,20.94,74326.8,12.15,6.03,6.39,0,*47
1535976365.89,55676,20.94,74330.0,12.15,6.29,6.75,0,*44
1535976367.12,55677,20.94,74324.0,12.15,6.39,6.87,0,*49
1535976368.3,55678,20.94,74328.5,12.15,5.59,6.07,0,*4B
1535976369.5,55679,20.94,74334.0,12.13,5.63,6.11,0,*42
1535976370.72,55680,20.94,74330.8,12.11,5.89,6.33,0,*42
1535976371.95,55681,20.94,74326.5,12.13,5.89,6.25,0,*46
1535976373.18,55682,20.94,74326.8,12.13,5.67,6.13,0,*40
1535976374.41,55683,20.94,74328.3,12.13,5.81,6.33,0,*4B
1535976375.62,55684,20.94,74328.8,12.11,5.81,6.25,0,*49
1535976376.88,55685,20.94,74330.0,12.13,5.93,6.43,0,*49
1535976378.12,55686,20.94,74332.0,12.11,5.93,6.35,0,*49
1535976379.33,55687,20.94,74328.5,12.11,6.21,6.61,0,*43
1535976380.55,55688,20.94,74330.5,12.13,6.11,6.57,0,*48
1535976381.77,55689,20.94,74326.0,12.11,6.03,6.35,0,*4C
1535976382.98,55690,20.94,74330.0,12.11,5.99,6.43,0,*45
1535976384.2,55691,20.94,74330.3,12.11,6.03,6.51,0,*47
1535976385.41,55692,20.94,74330.5,12.11,6.25,6.73,0,*40
1535976386.63,55693,20.94,74330.8,12.11,6.13,6.57,0,*42
1535976387.84,55694,20.94,74328.5,12.11,6.11,6.57,0,*47
1535976389.02,55695,20.94,74326.5,12.11,6.25,6.79,0,*4D
1535976390.23,55696,20.94,74330.3,12.11,6.35,6.83,0,*4A
1535976391.42,55697,20.94,74330.0,12.11,6.33,6.83,0,*4D
1535976392.61,55698,20.94,74330.3,12.11,6.33,6.83,0,*42
1535976393.82,55699,20.94,74330.0,12.13,6.33,6.83,0,*41
1535976395.04,55700,20.94,74328.5,12.11,5.77,6.13,0,*48
1535976396.26,55701,20.94,74330.0,12.13,5.77,6.21,0,*4A
1535976397.47,55702,20.94,74328.8,12.13,5.67,6.11,0,*4B
1535976398.72,55703,20.94,74328.8,12.13,5.55,5.89,0,*49
1535976399.93,55704,20.94,74328.5,12.11,6.03,6.35,0,*48
1535976401.15,55705,20.94,74328.8,12.11,5.93,6.25,0,*42
1535976402.36,55706,20.94,74328.5,12.11,6.13,6.33,0,*4D
1535976403.55,55707,20.94,74328.5,12.11,6.03,6.33,0,*4D
1535976404.74,55708,20.94,74328.0,12.11,5.67,5.99,0,*40
1535976405.96,55709,20.94,74330.8,12.09,5.77,6.11,0,*4A
1535976407.19,55710,20.94,74330.8,12.09,6.21,6.53,0,*44
1535976408.45,55711,20.94,74330.3,12.13,6.13,6.35,0,*4F
1535976409.64,55712,20.94,74328.5,12.11,5.99,6.25,0,*4E
1535976410.87,55713,20.94,74330.5,12.07,5.89,6.17,0,*48
1535976412.1,55714,20.94,74330.0,12.09,5.89,6.11,0,*47
1535976413.31,55715,20.94,74328.3,12.07,5.63,5.89,0,*4E
1535976414.54,55716,20.94,74326.0,12.09,5.89,6.11,0,*45
1535976415.75,55717,20.94,74328.8,12.07,5.89,6.11,0,*4A
1535976417.0,55718,20.94,74328.3,12.09,6.17,6.39,0,*45
1535976418.21,55719,20.94,74328.0,12.07,5.99,6.17,0,*43
1535976419.41,55720,20.94,74330.3,12.07,5.89,6.11,0,*4E
1535976420.6,55721,20.94,74330.5,12.07,5.95,6.21,0,*41
1535976421.79,55722,20.94,74330.8,12.07,5.77,6.11,0,*4D
1535976422.97,55723,20.94,74330.0,12.07,6.07,6.29,0,*43
1535976424.23,55724,20.94,74330.0,12.05,5.93,6.17,0,*45
1535976425.49,55725,20.94,74326.5,12.05,5.93,6.17,0,*44
1535976426.7,55726,20.94,74328.5,12.07,6.21,6.47,0,*4A
1535976427.91,55727,20.94,74328.3,12.07,6.33,6.57,0,*49
1535976429.12,55728,20.94,74328.8,12.07,6.11,6.47,0,*47
1535976430.33,55729,20.94,74328.5,12.07,6.11,6.47,0,*46
1535976431.54,55730,20.94,74330.5,12.05,6.03,6.29,0,*47
1535976432.77,55731,20.94,74328.5,12.05,6.07,6.35,0,*4F
1535976434.03,55732,20.94,74330.5,12.01,6.13,6.51,0,*4F
1535976435.24,55733,20.94,74330.8,12.07,6.29,6.57,0,*47
1535976436.48,55734,20.94,74328.5,12.05,6.25,6.51,0,*48
1535976437.71,55735,20.94,74328.0,12.05,6.29,6.65,0,*42
1535976438.97,55736,20.94,74328.0,12.05,6.35,6.61,0,*48
1535976440.2,55737,20.94,74330.3,12.05,6.25,6.53,0,*49
1535976441.46,55738,20.94,74328.8,12.05,6.35,6.61,0,*46
1535976442.7,55739,20.94,74324.8,12.05,6.25,6.51,0,*45
1535976443.94,55740,20.94,74328.3,12.05,6.25,6.51,0,*4B
1535976445.17,55741,20.94,74330.5,12.05,6.29,6.53,0,*44
1535976446.4,55742,20.94,74330.8,12.05,6.07,6.35,0,*4B
1535976447.63,55743,20.94,74326.8,12.05,6.13,6.29,0,*42
1535976448.84,55744,20.94,74326.8,12.07,5.85,5.99,0,*43
1535976450.03,55745,20.94,74328.5,12.07,5.77,6.07,0,*4B
1535976451.25,55746,20.94,74330.5,12.01,6.03,6.25,0,*4E
1535976452.48,55747,20.94,74326.8,12.05,6.25,6.53,0,*4E
1535976453.71,55748,20.94,74328.0,12.07,6.17,6.39,0,*4E
1535976454.93,55749,20.94,74326.8,12.01,6.11,6.33,0,*45
1535976456.16,55750,20.94,74330.8,12.05,5.95,6.17,0,*40
1535976457.42,55751,20.94,74328.8,12.05,6.17,6.51,0,*4A
1535976458.66,55752,20.94,74324.8,12.01,6.21,6.47,0,*4F
1535976459.92,55753,20.94,74328.8,12.05,6.17,6.43,0,*4B
1535976461.15,55754,20.94,74326.8,12.05,6.25,6.61,0,*4D
1535976462.35,55755,20.94,74330.3,12.05,6.07,6.29,0,*40
1535976463.56,55756,20.94,74330.8,12.01,5.99,6.25,0,*4F
1535976464.81,55757,20.94,74326.8,12.05,6.17,6.53,0,*4E
1535976466.06,55758,20.94,74328.5,12.05,6.17,6.53,0,*41
1535976467.32,55759,20.94,74324.0,12.05,5.93,6.13,0,*4B
1535976468.55,55760,20.94,74330.5,12.01,5.77,6.11,0,*4D
1535976469.76,55761,20.94,74324.3,12.01,5.71,6.03,0,*49
1535976471.01,55762,20.94,74328.5,12.01,5.81,6.13,0,*44
1535976472.23,55763,20.94,74328.5,12.01,6.03,6.25,0,*49
1535976473.47,55764,20.94,74328.3,12.01,5.93,6.21,0,*40
1535976474.65,55765,20.94,74326.8,11.99,5.99,6.25,0,*4D
1535976475.87,55766,20.94,74324.0,11.99,5.89,6.03,0,*4B
1535976477.1,55767,20.94,74326.3,11.97,6.11,6.43,0,*42
1535976478.34,55768,20.94,74326.8,11.99,6.13,6.47,0,*45
1535976479.55,55769,20.94,74330.0,11.97,5.99,6.29,0,*43
1535976480.78,55770,20.94,74326.8,11.97,5.89,6.07,0,*46
1535976481.99,55771,20.94,74328.0,11.99,5.93,6.11,0,*45
1535976483.23,55772,20.94,74328.5,11.97,5.89,6.11,0,*43
1535976484.47,55773,20.94,74326.0,11.97,6.11,6.47,0,*43
1535976485.7,55774,20.94,74330.0,11.97,6.21,6.53,0,*42
1535976486.93,55775,20.94,74328.8,11.97,6.11,6.43,0,*41
1535976488.16,55776,20.94,74330.3,11.97,6.29,6.53,0,*48
1535976489.37,55777,20.94,74324.5,11.97,5.95,6.11,0,*4B
1535976490.6,55778,20.94,74330.0,11.97,6.21,6.53,0,*4E
1535976491.84,55779,20.94,74326.0,11.95,6.25,6.61,0,*48
1535976493.05,55780,20.94,74330.0,11.99,6.11,6.47,0,*41
1535976494.3,55781,20.94,74326.3,11.95,5.85,6.13,0,*43
1535976495.54,55782,20.94,74326.8,11.95,5.73,6.03,0,*48
1535976496.75,55783,20.94,74326.8,11.93,6.03,6.39,0,*42
1535976497.96,55784,20.94,74328.0,11.95,5.95,6.25,0,*42
1535976499.17,55785,20.94,74326.5,11.93,6.03,6.13,0,*4C
1535976500.4,55786,20.94,74326.8,11.93,5.93,6.17,0,*41
1535976501.66,55787,20.94,74326.8,11.95,5.93,6.17,0,*46
1535976502.89,55788,20.94,74326.3,11.93,5.93,6.13,0,*4B
1535976504.09,55789,20.94,74328.5,11.93,6.07,6.39,0,*4C
1535976505.32,55790,20.94,74324.5,11.95,6.07,6.39,0,*42
1535976506.55,55791,20.94,74328.5,11.95,6.25,6.61,0,*4E
1535976507.73,55792,20.94,74328.3,11.93,5.95,6.33,0,*44
1535976508.93,55793,20.94,74328.5,11.93,6.07,6.39,0,*47
1535976510.16,55794,20.94,74328.5,11.93,5.93,6.13,0,*46
1535976511.41,55795,20.94,74324.3,11.91,5.81,6.13,0,*46
1535976512.61,55796,20.94,74326.0,11.91,6.03,6.29,0,*45
1535976513.85,55797,20.94,74328.5,11.91,6.03,6.39,0,*45
1535976515.08,55798,20.94,74328.0,11.91,5.99,6.35,0,*46
1535976516.29,55799,20.94,74330.0,11.89,6.03,6.35,0,*4E
1535976517.53,55800,20.94,74330.5,11.91,6.03,6.47,0,*4D
1535976518.71,55801,20.94,74326.8,11.89,5.95,6.33,0,*4A
1535976519.89,55802,20.94,74330.8,11.89,5.99,6.25,0,*42
1535976521.1,55803,20.94,74328.0,11.89,6.11,6.47,0,*44
1535976522.31,55804,20.94,74326.8,11.89,5.99,6.35,0,*45
1535976523.51,55805,20.94,74326.0,11.89,5.73,6.07,0,*41